Charlottetown, Prince Edward Island

8:32 AM AST on November 18, 2017 (GMT -0400)
Charlottetown

Weather History for CYYG - November, 2011

Change the Weather History Date:

Thursday, November 10, 2011

  Actual Average Record
Temperature  
Mean Temperature 50 °F -  
Max Temperature 59 °F 39 °F 60 °F (1996)
Min Temperature 41 °F 26 °F 23 °F (2003)
Degree Days  
Heating Degree Days 15    
Moisture  
Dew Point 43 °F    
Average Humidity 74    
Maximum Humidity 94    
Minimum Humidity 48    
Precipitation  
Precipitation 0.00 in 0.16 in - ()
Sea Level Pressure  
Sea Level Pressure 30.14 in    
Wind  
Wind Speed 7 mph ()    
Max Wind Speed 15 mph    
Max Gust Speed 21 mph    
Visibility 15.0 miles    
Events      
Averages and records for this station are not official NWS values.
T = Trace of Precipitation, MM = Missing Value Source: Averaged Metar Reports

Daily Weather History Graph

Daily Weather History Graph

Search for Another Location

Airport or City:

Trip Planner

Search our weather history database for the weather conditions in past years. The results will help you decide how hot, cold, wet, or windy it might be!

Date:

Astronomy

Nov. 10, 2011 Rise Set
Actual Time 7:06 AM AST 4:46 PM AST
Civil Twilight 6:34 AM AST 5:18 PM AST
Nautical Twilight 5:57 AM AST 5:54 PM AST
Astronomical Twilight 5:22 AM AST 6:29 PM AST
Moon 4:27 PM AST (11/10) 6:57 AM AST (11/10)
Length of Visible Light 10h 44m
Length of Day
9h 39m
Full, 100% of the Moon is Illuminated
Nov 10
Full
Nov 10
Full
Nov 18
Last Quarter
Nov 25
New
Dec 2
First Quarter

Hourly Weather History & Observations

Time (AST) Temp. Windchill Dew Point Humidity Pressure Visibility Wind Dir Wind Speed Gust Speed Precip Events Conditions
12:00 AM 44.6 °F 42.2 °F 39.2 °F 81% 30.24 in 15.0 mi ESE 4.6 mph - N/A   Overcast
1:00 AM 44.6 °F 41.4 °F 39.2 °F 81% 30.23 in 15.0 mi SE 5.8 mph - N/A   Overcast
2:00 AM 46 °F - 41 °F 78% 30.22 in 15 mi ESE 5.8 mph - -   Overcast
3:00 AM 46.4 °F 44.3 °F 42.8 °F 87% 30.22 in 15.0 mi ESE 4.6 mph - N/A   Overcast
5:00 AM 44.6 °F 42.2 °F 41.0 °F 87% 30.20 in 15.0 mi SE 4.6 mph - N/A   Mostly Cloudy
6:00 AM 44.6 °F - 41.0 °F 87% 30.20 in 15.0 mi SE 2.3 mph - N/A   Mostly Cloudy
7:00 AM 44.6 °F 41.4 °F 41.0 °F 87% 30.21 in 15.0 mi South 5.8 mph - N/A   Mostly Cloudy
8:00 AM 47 °F - 42 °F 79% 30.22 in 15 mi SSE 6.9 mph - -   Mostly Cloudy
8:00 AM 46.4 °F 42.9 °F 42.8 °F 87% 30.22 in 15.0 mi SSE 6.9 mph - N/A   Mostly Cloudy
9:00 AM 50.0 °F - 41.0 °F 71% 30.21 in 15.0 mi South 11.5 mph - N/A   Partly Cloudy
10:00 AM 51.8 °F - 41.0 °F 67% 30.21 in 15.0 mi South 15.0 mph - N/A   Partly Cloudy
12:00 PM 55.4 °F - 42.8 °F 63% 30.16 in 15.0 mi South 13.8 mph - N/A   Partly Cloudy
1:00 PM 57.2 °F - 44.6 °F 63% 30.13 in 15.0 mi South 13.8 mph - N/A   Mostly Cloudy
2:00 PM 59 °F - 44 °F 48% 30.11 in 15 mi South 12.7 mph - -   Scattered Clouds
2:00 PM 59.0 °F - 44.6 °F 59% 30.11 in 15.0 mi South 12.7 mph - N/A   Mostly Cloudy
3:00 PM 59.0 °F - 42.8 °F 55% 30.08 in 15.0 mi SSE 13.8 mph 19.6 mph N/A   Mostly Cloudy
4:00 PM 55.4 °F - 39.2 °F 54% 30.08 in 15.0 mi SSE 10.4 mph - N/A   Mostly Cloudy
5:00 PM 53.6 °F - 39.2 °F 58% 30.06 in 15.0 mi SSE 11.5 mph 18.4 mph N/A   Mostly Cloudy
6:00 PM 51.8 °F - 39.2 °F 62% 30.06 in 15.0 mi SSE 9.2 mph - N/A   Overcast
7:00 PM 51.8 °F - 46.4 °F 82% 30.06 in 15.0 mi SSE 11.5 mph - N/A   Mostly Cloudy
8:00 PM 51 °F - 47 °F 82% 30.02 in 15 mi SSE 9.2 mph - -   Overcast
8:31 PM 51.8 °F - - N/A% - 15.0 mi SSE 13.8 mph - N/A   Overcast
10:00 PM 51.8 °F - 50.0 °F 94% 29.96 in 15.0 mi SSE 13.8 mph 20.7 mph N/A   Overcast
11:00 PM 53.6 °F - 50.0 °F 88% 29.92 in 15.0 mi SSE 13.8 mph 20.7 mph N/A   Overcast